CAPE
0 0 1 1 1 1 1 1 1 1 0 0 0 0 0 0 0 0 0 0 0 0 0 0 0 0 0 0 0 0 0 0 0 0 0 0 0 0 7 5 35 54 1 15 112 279 227
0 0 0 0 1 1 1 1 1 1 0 0 0 0 0 0 0 0 0 0 0 0 0 0 0 0 0 0 0 0 0 0 0 0 0 0 0 0 0 0 1 0 0 0 0 178 191
0 0 0 1 1 1 1 1 0 1 0 0 0 0 0 0 0 0 0 0 0 0 0 0 0 0 0 0 0 0 0 0 0 0 0 0 0 0 0 0 0 0 0 0 0 1 69
0 0 0 0 0 0 0 1 1 0 1 0 0 0 0 0 0 0 0 0 0 0 0 0 0 0 0 0 0 0 0 0 0 0 0 0 0 0 0 0 0 11 0 0 0 0 7
0 0 0 0 0 0 0 0 2 2 0 0 0 0 0 0 0 0 0 0 0 0 0 0 0 0 0 0 0 0 0 0 0 0 0 0 0 0 0 0 0 0 0 0 4 0 14
0 0 0 0 0 0 0 1 2 3 1 0 0 0 0 0 0 0 0 0 0 0 0 0 0 0 0 0 0 0 0 0 0 0 0 0 0 0 0 0 9 2 37 14 10 0 11
0 0 0 0 0 0 1 1 1 1 3 1 0 0 0 0 0 0 0 0 0 0 0 0 0 0 0 0 0 0 0 0 0 0 0 0 0 0 0 0 6 14 22 9 0 0 3
0 0 0 0 0 0 1 0 1 0 0 1 0 0 0 0 0 0 0 0 0 0 0 0 0 0 0 0 0 0 0 0 0 0 0 0 0 0 0 0 0 0 0 0 0 0 0
0 0 0 0 0 2 2 2 2 1 0 1 0 0 0 0 0 0 0 0 0 0 0 0 0 0 0 0 0 0 0 0 0 0 0 0 0 0 0 0 0 0 3 0 0 0 0
0 0 0 0 1 2 2 2 0 0 0 1 0 0 0 0 0 0 0 0 0 0 0 0 0 0 0 0 0 0 0 0 0 0 0 0 0 0 0 0 0 0 0 0 0 0 0
0 0 0 0 2 1 1 1 1 0 0 1 1 0 0 0 0 0 0 0 0 0 0 0 0 0 0 0 0 0 0 0 0 0 0 0 0 0 0 0 0 0 0 0 0 0 0
0 0 0 0 1 0 1 1 1 0 0 1 0 0 0 0 0 0 0 0 0 0 0 0 0 0 0 0 0 0 0 0 0 0 0 0 0 0 0 0 0 0 0 0 0 0 0
0 0 0 0 1 0 2 2 1 0 0 0 0 0 0 0 0 0 0 0 0 0 0 0 0 0 0 0 0 0 0 0 0 0 0 0 0 0 0 0 0 0 0 0 0 0 0
0 0 1 1 1 1 0 0 0 0 0 0 0 0 0 0 0 0 0 0 0 0 0 0 0 0 0 0 0 0 0 0 0 0 0 0 0 0 0 0 0 0 0 0 0 0 0
0 1 2 2 1 1 1 0 0 0 0 0 0 0 0 0 0 0 0 0 0 0 0 0 0 0 0 0 0 0 0 0 0 0 0 0 0 0 0 0 0 0 0 0 0 0 0
2 2 3 2 2 1 2 2 1 0 0 0 0 0 0 0 0 0 0 0 0 0 0 0 0 0 0 0 0 0 0 0 0 0 0 0 0 0 0 0 0 0 0 0 0 0 0
3 3 3 3 2 2 2 1 0 0 0 0 0 0 0 0 0 0 0 0 0 0 0 0 0 0 0 0 0 0 0 0 0 0 0 0 0 0 0 0 0 0 0 0 0 0 0
2 3 3 3 2 2 2 2 0 0 0 0 0 0 0 0 0 0 0 0 0 0 0 0 0 0 0 0 0 0 0 0 0 0 0 0 0 0 0 0 0 0 0 0 0 0 0
2 3 3 3 3 3 3 2 1 0 0 0 0 0 0 0 0 0 0 0 0 0 0 0 0 0 0 0 0 0 0 0 0 0 0 0 0 0 0 0 0 0 0 0 0 0 0
3 3 4 3 3 3 3 2 1 0 0 0 0 0 0 0 0 0 0 0 0 0 0 0 0 0 0 0 0 0 0 0 0 0 0 0 0 0 0 0 0 0 0 0 0 0 0
3 3 4 4 3 3 2 1 1 0 0 0 0 0 0 0 0 0 0 0 0 0 0 0 0 0 0 0 0 0 0 0 0 0 0 0 0 0 0 0 0 0 0 0 0 0 0
4 4 4 4 4 3 2 1 1 0 0 0 0 0 0 0 0 0 0 0 0 0 0 0 0 0 0 0 0 0 0 0 0 0 0 0 0 0 0 0 0 0 0 0 0 0 0
5 4 4 4 4 3 3 2 1 0 0 0 0 0 0 0 0 0 0 0 0 0 0 0 0 0 0 0 0 0 0 0 0 0 0 0 0 0 0 0 0 0 0 0 0 0 1
5 4 4 3 3 2 3 2 1 0 0 0 0 0 0 0 0 0 0 0 0 0 0 0 0 0 0 0 0 0 0 0 0 0 0 0 0 0 0 0 0 0 152 132 100 86 220
5 4 4 4 3 2 2 2 2 0 0 0 0 0 0 0 0 0 0 0 0 0 0 0 0 0 0 0 0 0 0 0 0 0 0 0 0 0 0 0 0 0 26 50 98 84 329
4 4 4 4 3 1 0 1 2 0 0 0 0 0 0 0 0 0 0 0 0 0 0 0 0 0 0 0 0 0 0 0 0 0 0 0 0 0 0 0 0 163 58 142 221 21 541
4 2 1 2 2 2 2 1 2 0 0 0 0 0 0 0 0 0 0 0 0 0 0 0 0 0 0 0 0 0 0 0 0 0 0 0 0 0 0 0 0 111 101 196 62 99 157
3 3 3 3 3 3 3 2 3 2 1 0 0 0 1 17 0 0 0 0 0 0 0 0 0 0 0 0 0 0 0 0 0 0 0 0 0 0 0 0 0 81 103 173 0 32 118
1 2 2 3 3 2 2 2 3 2 1 0 0 0 0 0 0 0 0 0 0 0 0 0 0 0 0 0 0 0 0 0 0 0 0 0 0 0 0 85 177 161 99 0 0 2 10
CIN
-0 -0 -0 -0 -0 -0 -0 -0 -0 -0 -0 -0 -0 -0 -0 -0 -0 -0 -0 -0 -0 -0 -0 -0 -0 -0 -0 -0 -0 -0 -0 -0 -0 -0 -0 -0 -0 -0 -28 -27 -60 -20 -22 -60 -30 -25 -10
-0 -0 -0 -0 -0 -0 -0 -0 -0 -0 -0 -0 -0 -0 -0 -0 -0 -0 -0 -0 -0 -0 -0 -0 -0 -0 -0 -0 -0 -0 -0 -0 -0 -0 -0 -0 -0 -0 -0 -0 -1 -0 -0 -0 -0 -21 -29
-0 -0 -0 -3 -2 -0 -0 -0 -0 -0 -0 -0 -0 -0 -0 -0 -0 -0 -0 -0 -0 -0 -0 -0 -0 -0 -0 -0 -0 -0 -0 -0 -0 -0 -0 -0 -0 -0 -0 -0 -0 -0 -0 -0 -0 -2 -10
-0 -0 -0 -0 -0 -0 -0 -0 -0 -0 -0 -0 -0 -0 -0 -0 -0 -0 -0 -0 -0 -0 -0 -0 -0 -0 -0 -0 -0 -0 -0 -0 -0 -0 -0 -0 -0 -0 -0 -0 -0 -40 -0 -0 -0 -0 -31
-0 -0 -0 -0 -0 -0 -0 -0 -0 -0 -0 -0 -0 -0 -0 -0 -0 -0 -0 -0 -0 -0 -0 -0 -0 -0 -0 -0 -0 -0 -0 -0 -0 -0 -0 -0 -0 -0 -0 -0 -0 -0 -0 -0 -3 -6 -16
-0 -0 -0 -0 -0 -0 -0 -0 -0 -0 -0 -0 -0 -0 -0 -0 -0 -0 -0 -0 -0 -0 -0 -0 -0 -0 -0 -0 -0 -0 -0 -0 -0 -0 -0 -0 -0 -0 -0 -0 -4 -9 -5 -3 -3 -0 -27
-0 -0 -0 -0 -0 -0 -0 -0 -0 -0 -0 -0 -0 -0 -0 -0 -0 -0 -0 -0 -0 -0 -0 -0 -0 -0 -0 -0 -0 -0 -0 -0 -0 -0 -0 -0 -0 -0 -0 -0 -19 -3 -1 -3 -0 -0 -2
-0 -0 -0 -0 -0 -0 -0 -0 -0 -0 -0 -0 -0 -0 -0 -0 -0 -0 -0 -0 -0 -0 -0 -0 -0 -0 -0 -0 -0 -0 -0 -0 -0 -0 -0 -0 -0 -0 -0 -0 -0 -0 -0 -0 -0 -0 -0
-0 -0 -0 -0 -0 -0 -0 -0 -0 -0 -0 -0 -0 -0 -0 -0 -0 -0 -0 -0 -0 -0 -0 -0 -0 -0 -0 -0 -0 -0 -0 -0 -0 -0 -0 -0 -0 -0 -0 -0 -0 -0 -3 -17 -0 -0 -0
-0 -0 -0 -0 -0 -0 -0 -0 -0 -0 -0 -0 -0 -0 -0 -0 -0 -0 -0 -0 -0 -0 -0 -0 -0 -0 -0 -0 -0 -0 -0 -0 -0 -0 -0 -0 -0 -0 -0 -0 -0 -0 -0 -0 -0 -0 -0
-0 -0 -0 -0 -0 -0 -0 -0 -0 -0 -0 -0 -0 -0 -0 -0 -0 -0 -0 -0 -0 -0 -0 -0 -0 -0 -0 -0 -0 -0 -0 -0 -0 -0 -0 -0 -0 -0 -0 -0 -0 -0 -0 -0 -0 -0 -1
-0 -0 -0 -0 -0 -0 -0 -0 -0 -0 -1 -0 -0 -0 -0 -0 -0 -0 -0 -0 -0 -0 -0 -0 -0 -0 -0 -0 -0 -0 -0 -0 -0 -0 -0 -0 -0 -0 -0 -0 -0 -0 -0 -0 -0 -0 -0
-0 -0 -0 -0 -0 -0 -0 -0 -0 -0 -1 -0 -0 -0 -0 -0 -0 -0 -0 -0 -0 -0 -0 -0 -0 -0 -0 -0 -0 -0 -0 -0 -0 -0 -0 -0 -0 -0 -0 -0 -0 -0 -0 -0 -0 -0 -0
-0 -0 -0 -0 -0 -0 -0 -0 -0 -0 -0 -0 -0 -0 -0 -0 -0 -0 -0 -0 -0 -0 -0 -0 -0 -0 -0 -0 -0 -0 -0 -0 -0 -0 -0 -0 -0 -0 -0 -0 -0 -0 -0 -0 -0 -0 -0
-0 -0 -0 -0 -0 -0 -0 -0 -0 -0 -0 -0 -0 -0 -0 -0 -0 -0 -0 -0 -0 -0 -0 -0 -0 -0 -0 -0 -0 -0 -0 -0 -0 -0 -0 -0 -0 -0 -0 -0 -0 -0 -0 -0 -0 -0 -0
-0 -0 -0 -0 -0 -0 -0 -0 -0 -0 -0 -0 -0 -0 -0 -0 -0 -0 -0 -0 -0 -0 -0 -0 -0 -0 -0 -0 -0 -0 -0 -0 -0 -0 -0 -0 -0 -0 -0 -0 -0 -0 -0 -0 -0 -0 -0
-0 -0 -0 -0 -0 -0 -0 -0 -0 -0 -0 -0 -0 -0 -0 -0 -0 -0 -0 -0 -0 -0 -0 -0 -0 -0 -0 -0 -0 -0 -0 -0 -0 -0 -0 -0 -0 -0 -0 -0 -0 -0 -0 -0 -0 -0 -0
-0 -0 -0 -0 -0 -0 -0 -0 -0 -0 -0 -0 -0 -0 -0 -0 -0 -0 -0 -0 -0 -0 -0 -0 -0 -0 -0 -0 -0 -0 -0 -0 -0 -0 -0 -0 -0 -0 -0 -0 -0 -0 -0 -0 -0 -0 -0
-0 -0 -0 -0 -0 -0 -0 -0 -0 -0 -0 -0 -0 -0 -0 -0 -0 -0 -0 -0 -0 -0 -0 -0 -0 -0 -0 -0 -0 -0 -0 -0 -0 -0 -0 -0 -0 -0 -0 -0 -0 -0 -0 -0 -0 -0 -0
-0 -0 -0 -0 -0 -0 -0 -0 -0 -0 -0 -0 -0 -0 -0 -0 -0 -0 -0 -0 -0 -0 -0 -0 -0 -0 -0 -0 -0 -0 -0 -0 -0 -0 -0 -0 -0 -0 -0 -0 -0 -0 -0 -0 -0 -0 -0
-0 -0 -0 -0 -0 -0 -0 -0 -0 -0 -0 -0 -0 -0 -0 -0 -0 -0 -0 -0 -0 -0 -0 -0 -0 -0 -0 -0 -0 -0 -0 -0 -0 -0 -0 -0 -0 -0 -0 -0 -0 -0 -0 -0 -0 -0 -0
-0 -0 -0 -0 -0 -0 -0 -0 -0 -0 -0 -0 -0 -0 -0 -0 -0 -0 -0 -0 -0 -0 -0 -0 -0 -0 -0 -0 -0 -0 -0 -0 -0 -0 -0 -0 -0 -0 -0 -0 -0 -0 -0 -0 -0 -0 -0
-0 -0 -0 -0 -0 -0 -0 -0 -0 -0 -0 -0 -0 -0 -0 -0 -0 -0 -0 -0 -0 -0 -0 -0 -0 -0 -0 -0 -0 -0 -0 -0 -0 -0 -0 -0 -0 -0 -0 -0 -0 -0 -0 -0 -0 -0 -7
-0 -0 -0 -0 -0 -0 -0 -0 -0 -0 -0 -0 -0 -0 -0 -0 -0 -0 -0 -0 -0 -0 -0 -0 -0 -0 -0 -0 -0 -0 -0 -0 -0 -0 -0 -0 -0 -0 -0 -0 -0 -0 -22 -18 -5 -1 -32
-0 -0 -0 -0 -0 -0 -0 -0 -0 -0 -0 -0 -0 -0 -0 -0 -0 -0 -0 -0 -0 -0 -0 -0 -0 -0 -0 -0 -0 -0 -0 -0 -0 -0 -0 -0 -0 -0 -0 -0 -0 -0 -29 -24 -16 -4 -17
-0 -0 -0 -0 -0 -0 -0 -0 -0 -0 -0 -0 -0 -0 -0 -0 -0 -0 -0 -0 -0 -0 -0 -0 -0 -0 -0 -0 -0 -0 -0 -0 -0 -0 -0 -0 -0 -0 -0 -0 -0 -19 -80 -75 -70 -41 -3
-0 -0 -0 -0 -0 -0 -0 -0 -0 -0 -0 -0 -0 -0 -0 -0 -0 -0 -0 -0 -0 -0 -0 -0 -0 -0 -0 -0 -0 -0 -0 -0 -0 -0 -0 -0 -0 -0 -0 -0 -0 -94 -83 -53 -35 -71 -102
-0 -0 -0 -0 -0 -0 -0 -0 -0 -0 -0 -0 -0 -0 -39 -7 -0 -0 -0 -0 -0 -0 -0 -0 -0 -0 -0 -0 -0 -0 -0 -0 -0 -0 -0 -0 -0 -0 -0 -0 -0 -136 -52 -18 -0 -207 -128
-0 -0 -0 -0 -0 -0 -0 -0 -0 -0 -0 -0 -0 -0 -0 -68 -0 -0 -0 -0 -0 -0 -0 -0 -0 -0 -0 -0 -0 -0 -0 -0 -0 -0 -0 -0 -0 -0 -0 -24 -66 -90 -95 -0 -0 -0 -277
Wind_Speed
8 8 23 37 37 37 36 35 34 33 32 32 32 32 31 30 30 29 28 28 27 25 24 22 22 20 15 12 14 15 3 8 3 4 3 9 10 16 13 12 9 10 11 10 13 15 25
16 18 23 32 36 39 38 36 35 33 31 32 32 32 32 32 31 30 29 28 28 26 24 23 19 17 13 11 14 9 4 3 3 6 8 13 16 18 16 14 15 16 17 16 14 7 8
10 8 9 11 20 39 39 38 37 36 33 31 31 32 32 32 32 31 30 29 27 25 22 15 12 12 10 13 10 5 3 5 11 14 12 16 20 17 16 15 15 14 15 17 15 6 11
17 19 22 22 23 22 39 38 37 37 36 35 33 32 32 32 32 32 30 28 25 22 16 12 10 11 11 9 8 5 8 7 13 15 16 15 17 21 21 16 16 12 17 15 8 6 12
17 18 18 19 21 26 27 27 38 35 35 35 35 35 33 33 33 31 28 25 20 16 14 12 13 11 8 7 5 3 7 8 9 13 14 10 11 16 17 19 16 20 15 18 10 10 11
15 17 18 19 19 23 25 29 26 39 34 33 34 34 35 35 34 30 27 18 16 15 14 15 14 10 7 4 5 4 8 11 12 9 10 10 15 19 21 23 24 21 21 11 15 12 17
17 18 19 19 16 17 15 13 10 21 29 33 34 34 34 34 34 28 22 17 17 15 15 18 13 15 6 8 4 3 8 12 14 15 15 15 21 26 24 25 23 18 23 18 12 15 18
20 20 21 20 18 15 12 9 8 10 23 32 33 30 32 32 31 24 17 18 17 18 17 15 15 15 13 9 4 3 5 7 13 15 15 17 25 20 19 18 23 21 20 19 17 17 17
24 24 23 23 22 19 12 11 10 10 10 33 33 32 34 33 28 17 16 16 18 14 14 12 11 11 9 6 6 2 0 10 10 14 16 21 20 16 21 22 25 26 25 23 22 22 19
24 26 25 25 26 23 18 15 17 14 11 9 30 32 34 29 19 18 15 16 19 13 13 10 7 8 8 12 9 7 8 8 11 14 17 22 16 20 22 25 25 30 26 25 28 26 29
22 24 26 27 27 24 21 19 19 21 19 15 9 20 32 22 17 13 14 18 14 11 13 9 6 10 11 14 4 10 8 10 10 11 17 17 21 20 24 24 23 26 19 26 27 31 33
23 24 26 27 26 24 23 21 22 25 20 14 8 14 23 15 12 12 15 15 11 12 17 8 7 8 7 10 11 5 6 10 11 11 17 17 19 23 26 19 21 22 22 25 27 33 39
24 25 25 25 24 24 23 22 24 23 20 13 14 15 15 14 15 13 15 11 8 10 9 7 5 7 9 9 9 7 5 6 11 10 13 16 18 18 20 21 20 22 23 31 36 38 41
26 25 25 23 22 22 24 25 26 25 26 10 25 17 15 13 13 13 12 10 7 9 7 7 6 7 10 11 13 11 10 10 12 16 12 17 19 21 19 26 23 27 29 32 36 38 38
26 25 24 23 22 21 22 26 27 29 36 36 10 16 16 16 13 12 11 8 10 8 9 4 2 4 9 13 15 13 15 13 14 16 18 15 18 17 20 21 24 23 33 31 37 31 35
23 23 24 23 21 21 22 25 29 34 38 37 20 14 16 15 14 11 9 10 10 11 9 4 6 10 9 11 17 17 16 16 16 16 18 16 17 15 16 20 23 27 25 29 32 38 38
23 23 23 23 21 21 23 26 29 35 37 31 15 12 14 13 12 9 7 11 8 9 8 9 6 6 6 10 12 15 17 15 17 17 17 18 19 12 14 20 21 22 30 31 31 33 36
24 24 23 22 20 21 23 25 28 33 36 23 15 13 13 11 9 8 6 8 9 8 8 8 9 7 9 10 11 15 17 16 16 17 16 17 19 16 12 16 19 24 26 29 34 35 34
26 24 24 22 21 22 23 24 26 28 30 23 16 13 12 10 9 6 7 6 8 7 10 8 7 11 10 12 15 14 16 14 15 15 16 15 18 16 16 15 18 22 21 25 30 31 33
26 24 23 22 23 23 23 23 24 25 26 21 15 14 10 8 12 7 4 4 4 9 10 11 7 10 11 14 17 16 14 16 15 15 17 16 19 24 22 18 17 19 21 23 29 33 37
26 24 24 24 24 24 24 23 23 23 23 20 15 13 14 9 6 6 3 2 2 5 11 11 11 12 12 15 15 17 16 13 14 15 17 18 22 21 22 21 21 21 23 25 28 29 31
26 25 25 24 25 24 24 23 21 20 21 18 16 15 12 12 10 6 4 2 2 8 9 12 14 12 14 16 19 16 14 16 17 16 16 17 20 22 23 23 25 29 30 30 31 31 31
27 26 25 26 25 25 24 22 21 17 17 18 18 16 16 13 7 6 5 5 3 5 13 13 9 12 13 12 13 12 13 13 13 17 17 18 20 22 28 19 26 33 33 33 31 29 31
28 26 26 26 26 25 25 22 20 15 14 19 17 16 17 13 7 6 9 5 3 8 9 9 11 13 13 10 10 11 11 12 12 14 17 18 20 22 27 24 34 27 21 24 29 28 28
29 28 28 27 26 27 27 25 22 14 12 16 15 14 16 15 8 6 5 4 3 5 5 7 11 11 5 7 8 10 10 12 13 15 16 17 18 22 27 31 32 24 24 26 28 32 28
30 28 28 27 26 25 25 25 23 15 10 14 15 12 12 15 7 13 4 4 2 4 6 7 8 8 7 9 10 13 14 14 16 15 16 16 19 22 22 31 35 23 21 23 24 33 24
30 28 28 27 27 28 27 24 21 14 10 14 15 9 12 9 13 9 4 5 3 2 5 2 4 7 10 10 12 13 14 15 15 15 14 13 16 21 24 29 28 21 23 21 31 28 27
31 29 28 27 27 27 27 26 19 11 12 11 17 6 15 12 15 10 7 4 2 2 2 3 5 9 8 9 9 11 12 8 11 12 14 15 18 19 24 29 33 23 22 29 27 26 27
31 28 27 26 27 26 26 26 24 12 10 10 13 11 15 17 15 10 7 8 9 10 5 3 13 4 9 9 9 10 10 9 11 15 13 19 18 24 22 20 19 20 22 24 26 28 27
Wind_Direction
348 356 349 3 356 350 345 341 338 336 331 326 323 320 316 312 309 304 299 296 294 283 271 262 280 283 317 320 311 308 353 105 321 58 309 271 266 252 276 274 280 273 267 279 241 185 152
50 48 42 29 16 3 353 343 337 330 324 322 320 319 319 315 311 307 301 294 294 291 277 275 304 306 331 319 306 318 324 117 305 294 286 264 261 255 260 264 261 255 254 257 264 38 355
41 23 25 30 32 349 348 343 342 338 329 320 316 316 314 314 314 310 304 299 291 292 300 331 347 331 350 324 320 328 327 284 272 269 279 268 254 256 260 258 265 255 260 265 265 317 277
41 37 33 31 28 27 351 339 335 336 338 332 319 314 311 312 309 310 306 303 304 309 330 347 357 335 337 343 331 321 287 284 269 270 273 270 263 253 249 267 256 259 261 259 296 295 276
36 32 28 25 24 21 21 20 335 324 326 324 325 321 315 311 312 308 306 311 327 337 336 342 323 321 352 347 347 330 283 287 281 275 276 274 270 265 259 251 251 248 260 258 270 288 284
28 25 23 21 18 19 19 16 17 341 321 315 319 316 318 318 315 311 307 334 342 340 328 313 307 319 342 358 1 328 279 267 275 275 275 263 264 257 253 246 245 250 253 258 262 274 263
26 23 19 16 12 16 15 11 360 305 311 315 317 316 312 313 318 317 328 343 331 326 314 296 303 303 333 313 358 327 276 270 266 262 260 256 252 245 246 247 263 253 251 254 268 273 263
23 20 18 16 12 10 3 357 344 320 303 313 314 308 310 309 309 327 356 340 335 321 308 307 293 292 295 297 327 335 283 275 263 260 260 257 249 254 261 258 252 253 250 254 260 266 267
20 18 17 17 17 17 10 13 6 353 319 314 314 310 314 313 314 1 355 352 336 339 314 314 298 296 302 301 314 328 328 285 269 259 255 257 260 258 253 253 249 250 250 252 257 256 271
16 15 15 17 19 21 23 23 21 13 7 360 307 311 317 304 6 358 353 353 327 336 312 307 296 303 296 288 296 307 296 295 280 265 259 258 266 255 252 252 252 247 255 256 252 257 254
12 12 13 14 15 18 21 22 19 16 16 14 351 293 344 1 12 22 10 351 354 337 302 308 289 294 285 281 319 289 291 290 287 272 261 264 255 256 253 253 256 253 266 256 256 253 255
7 7 8 9 12 15 17 17 15 12 13 8 337 9 7 35 47 25 4 358 11 319 295 315 300 285 278 284 290 298 304 295 294 284 267 274 265 257 255 261 256 263 261 259 261 256 252
1 2 4 5 8 11 13 14 13 12 13 6 296 283 32 45 41 41 3 17 49 339 342 319 290 268 271 272 279 275 277 295 293 282 272 269 263 265 261 255 258 256 254 250 250 248 249
356 357 359 1 4 7 10 11 10 11 10 342 296 23 47 54 61 66 83 75 55 8 344 328 303 268 268 267 270 269 271 284 286 281 282 269 264 257 258 253 258 251 249 250 250 250 252
352 353 356 357 1 4 5 6 8 6 352 318 294 39 38 36 66 70 75 79 40 20 336 349 21 257 273 265 265 264 270 280 285 281 280 280 275 270 260 260 258 254 249 256 260 263 255
347 351 353 356 360 3 5 5 3 354 333 328 17 36 28 35 49 56 71 30 37 341 342 341 291 291 265 267 257 258 263 276 280 282 276 286 281 277 270 263 262 260 264 251 254 251 251
348 352 356 359 2 5 5 3 360 349 329 348 27 36 23 35 40 53 71 17 20 10 343 313 314 299 297 268 271 263 267 280 282 277 276 275 277 285 276 263 264 259 255 256 262 254 253
349 352 355 359 3 4 3 2 359 351 331 4 16 19 26 31 37 33 63 34 11 359 346 332 318 318 294 283 281 274 267 281 289 279 275 279 277 285 278 284 276 267 263 258 252 251 256
348 351 354 357 360 358 358 0 359 355 351 358 7 10 26 26 16 36 23 31 349 351 315 329 327 300 297 283 279 278 275 295 298 290 282 285 278 277 283 283 276 270 269 264 261 263 255
348 350 354 355 355 354 355 357 357 353 349 356 3 1 8 12 351 2 72 75 14 322 310 304 314 304 298 289 285 282 287 292 296 293 291 285 279 271 283 287 286 267 269 270 263 257 254
348 349 350 350 350 348 349 351 352 351 348 350 356 356 347 5 354 350 11 104 86 321 301 298 300 300 296 292 290 285 288 294 301 298 292 285 276 276 279 284 283 279 272 272 265 264 258
346 346 345 345 345 344 343 345 346 347 345 343 343 343 339 335 336 325 315 300 255 307 304 295 293 301 300 295 291 289 294 291 293 298 293 291 283 281 277 280 279 274 271 270 268 266 265
339 339 340 339 338 337 339 339 341 342 343 337 332 330 324 324 312 296 278 298 264 299 304 301 304 304 306 311 316 320 315 311 306 294 292 288 284 280 271 281 280 271 270 268 268 268 266
334 334 334 333 332 330 331 332 332 331 330 325 327 327 317 315 293 267 297 287 265 291 298 308 308 305 312 323 329 327 325 319 314 306 297 290 284 281 274 279 269 277 284 277 271 270 269
330 330 329 328 327 325 324 324 323 323 321 316 319 319 313 306 300 288 284 279 307 320 323 323 319 326 354 345 329 320 314 310 310 307 301 295 290 285 275 272 275 281 281 277 273 270 270
327 327 326 325 323 322 321 319 316 311 309 306 303 310 314 304 290 293 222 193 220 301 322 337 339 344 329 320 317 301 300 304 300 303 305 298 290 284 284 274 272 288 286 284 280 267 277
324 325 325 325 322 319 318 316 311 296 284 295 304 289 301 305 306 280 249 185 293 317 330 28 354 333 315 315 303 305 306 310 304 303 309 304 296 284 281 278 278 288 290 285 264 268 280
321 322 322 323 321 317 315 314 313 294 280 291 290 286 284 294 290 279 287 257 289 19 357 32 346 309 319 317 318 318 315 316 314 319 315 309 304 296 289 279 274 297 284 267 274 278 280
319 320 321 321 321 319 314 311 309 287 278 278 290 280 272 270 287 286 292 300 299 301 350 75 310 6 321 338 328 317 320 321 316 316 323 309 306 298 294 299 308 303 287 281 277 275 277